• Processing (Info)

  • MPEC 2022-O52 : 2022 OE1

    The following Minor Planet Electronic Circular may be linked-to from your own Web pages, but must not otherwise be redistributed electronically.

    A form allowing access to any MPEC is at the bottom of this page.


    Read MPEC 2022-O51 Read MPEC 2022-O53


    M.P.E.C. 2022-O52                                 Issued 2022 July 26, 11:35 UT
    
         The Minor Planet Electronic Circulars contain information on unusual
             minor planets and routine data on comets.  They are published
        on behalf of Division F of the International Astronomical Union by the
              Minor Planet Center, Smithsonian Astrophysical Observatory,
                              Cambridge, MA 02138, U.S.A.
    
                 Prepared using the Tamkin Foundation Computer Network
    
                                  MPC@CFA.HARVARD.EDU
                URL https://www.minorplanetcenter.net/    ISSN 1523-6714
    
                                    2022 OE1                                 
    
    
    Observations:
         K22O01E* C2022 07 21.35545819 13 02.298-32 39 07.10         20.66wUEO052F52
         K22O01E  C2022 07 21.36500319 13 07.766-32 39 50.10         21.06wUEO052F52
         K22O01E  C2022 07 21.38404219 13 18.785-32 41 16.51         21.13wUEO052F52
         K22O01E ^C2022 07 22.40102119 24 42.494-33 57 53.21         21.00GVEO052568
         K22O01E ^C2022 07 22.40200019 24 43.136-33 57 57.71         21.01GVEO052568
         K22O01E ^C2022 07 22.40297819 24 43.775-33 58 02.19         20.88GVEO052568
         K22O01E ^C2022 07 22.40395619 24 44.414-33 58 06.66         20.63GVEO052568
         K22O01E KC2022 07 22.98515419 32 00.738-34 41 13.04         20.1 GXEO052Y00
         K22O01E KC2022 07 22.99341419 32 06.651-34 41 53.62         20.5 GXEO052Y00
         K22O01E KC2022 07 23.00159119 32 12.632-34 42 33.71         20.1 GXEO052Y00
         K22O01E ^C2022 07 24.37930919 51 15.128-36 30 27.94         20.60GVEO052568
         K22O01E ^C2022 07 24.38028719 51 15.939-36 30 32.57         20.43GVEO052568
         K22O01E ^C2022 07 24.38127719 51 16.775-36 30 37.29         20.38GVEO052568
    
    Observer details:
    568 Mauna Kea.  Observers R. Wainscoat, C. Wipper, E. Bertin, H. Januszewski.
        Measurers R. Weryk, R. Wainscoat.  3.6-m Canada-France-Hawaii Telescope +
        CCD.
    F52 Pan-STARRS 2, Haleakala.  Observers J. Bulger, T. Lowe, A. Schultz, I.
        Smith.  Measurers K. Chambers, S. Chastel, T. de Boer, J. Fairlamb, H.
        Gao, M. Huber, C.-C. Lin, E. Magnier, Y. Ramanjooloo, R. Wainscoat, R.
        Weryk.  1.8-m Ritchey-Chretien + CCD.
    Y00 SONEAR Observatory, Oliveira.  Observer C. Jacques.  0.45-m f/2.9
        reflector + CCD.
    
    Orbital elements:
    2022 OE1                                                 Earth MOID = 0.0503 AU
    Epoch 2022 Aug. 9.0 TT = JDT 2459800.5                  Veres                   
    M 358.93336              (2000.0)            P               Q                  
    n   0.27711503     Peri.  215.08385     +0.79273721     +0.60613524             
    a   2.3300361      Node   107.47653     -0.54264911     +0.74998964             
    e   0.5495825      Incl.    3.88089     -0.27766825     +0.26479352             
    P   3.56           H   25.70          G   0.15           U   8                  
    Residuals in seconds of arc
    220721 F52  0.2+  0.0     220722 568  0.0   0.0     220724 568  0.0   0.0
    220721 F52  0.4-  0.4+    220722 568  0.0   0.0     220724 568  0.1-  0.0
    220721 F52  0.1-  0.0     220722 Y00  0.1-  0.2-    220724 568  0.1+  0.0
    220722 568  0.0   0.0     220722 Y00  0.5-  0.2-
    220722 568  0.0   0.0     220723 Y00  0.8+  0.3-
    
    Ephemeris:
    2022 OE1                 a,e,i = 2.33, 0.55, 4                   q = 1.0495
    Date    TT    R. A. (2000) Decl.     Delta      r    Elong.  Phase     V
    2022 06 26    17 42 19.3 -17 00 52   0.1862  1.2001   169.5     8.9    23.0
    ...
    2022 07 11    18 08 53.3 -22 57 36   0.1121  1.1246   163.6    14.8    22.0
    ...
    2022 07 19    18 51 20.0 -29 51 59   0.08028 1.0935   163.7    15.2    21.3
    ...
    2022 07 25    20 00 49.9 -37 15 45   0.06218 1.0752   162.2    16.8    20.7
    2022 07 26    20 17 48.5 -38 29 00   0.05992 1.0726   161.1    17.9    20.7
    2022 07 27    20 36 37.9 -39 36 13   0.05793 1.0701   159.5    19.4    20.6
    ...
    2022 08 02    22 57 40.2 -41 10 19   0.05300 1.0581   143.7    34.6    20.9
    ...
    2022 08 10    01 22 48.3 -29 44 42   0.06499 1.0501   122.5    54.5    21.9
    ...
    2022 08 25    02 48 26.0 -13 58 36   0.1125  1.0603   113.2    61.2    23.3
    
    M. P. C. Staff               (C) Copyright 2022 MPC           M.P.E.C. 2022-O52
    


    Read MPEC 2022-O51 Read MPEC 2022-O53


    MPEC number:

    Enter an MPEC number in one of the following forms:

    • 1997-B01 (the full form)
    • J97B01 (the packed version of the full form)
    • B01 (the abbreviated form)